This demonstration page uses our WeatherBlox Daily Observations layout. Learn more.

Left ArrowRight Arrow

Hourly Observations for March 15, 2016

Temp ( °F °C ) Dew Point ( °F °C ) Humidity (%) Winds ( mph kmh ) Pressure ( in mb ) Visibility ( mi km ) Precip ( " mm )
12:15 am 00:15 Clear 48 9 43 6 82 82 NW 3 6 29.62 1003 10 16 0.00 0.00
12:35 am 00:35 Clear 46 8 43 6 87 87 Calm 29.59 1002 10 16 0.00 0.00
12:55 am 00:55 Clear 45 7 43 6 93 93 N 3 6 29.62 1003 10 16 0.00 0.00
1:15 am 01:15 Clear 45 7 43 6 93 93 Calm 29.62 1003 10 16 0.00 0.00
1:35 am 01:35 Clear 43 6 39 4 87 87 WNW 7 11 29.62 1003 5 8 0.00 0.00
1:55 am 01:55 Clear 41 5 39 4 93 93 NW 10 17 29.62 1003 10 16 0.00 0.00
2:15 am 02:15 Clear 43 6 39 4 87 87 WNW 9 15 29.62 1003 10 16 0.00 0.00
2:35 am 02:35 Clear 41 5 39 4 93 93 NW 13 20 29.65 1004 10 16 0.00 0.00
2:55 am 02:55 Clear 41 5 37 3 87 87 WNW 9 15 29.65 1004 10 16 0.00 0.00
3:15 am 03:15 Clear 43 6 37 3 81 81 NW 13 20 29.65 1004 10 16 0.00 0.00
3:35 am 03:35 Clear 45 7 37 3 76 76 NNW 16 26 29.65 1004 10 16 0.00 0.00
3:55 am 03:55 Clear 45 7 37 3 76 76 NNW 15 24 29.65 1004 10 16 0.00 0.00
4:15 am 04:15 Clear 45 7 37 3 76 76 NW 15 24 29.65 1004 10 16 0.00 0.00
4:35 am 04:35 Clear 43 6 37 3 81 81 NW 16 26 29.68 1005 10 16 0.00 0.00
4:55 am 04:55 Clear 45 7 37 3 76 76 NNW 14 22 29.68 1005 10 16 0.00 0.00
5:15 am 05:15 Clear 45 7 37 3 76 76 NNW 14 22 29.68 1005 10 16 0.00 0.00
5:35 am 05:35 Clear 45 7 36 2 71 71 NNW 9 15 29.71 1006 10 16 0.00 0.00
5:55 am 05:55 Mostly Cloudy 45 7 36 2 71 71 NW 13 20 29.71 1006 10 16 0.00 0.00
6:15 am 06:15 Cloudy 45 7 36 2 71 71 NW 14 22 29.74 1007 10 16 0.00 0.00
6:35 am 06:35 Cloudy 45 7 36 2 71 71 NW 17 28 29.74 1007 10 16 0.00 0.00
6:55 am 06:55 Cloudy 45 7 36 2 71 71 NW 10 17 29.74 1007 10 16 0.00 0.00
7:15 am 07:15 Cloudy 45 7 36 2 71 71 NW 12 19 29.74 1007 10 16 0.00 0.00
7:35 am 07:35 Cloudy 45 7 36 2 71 71 NNW 12 19 29.74 1007 10 16 0.00 0.00
7:55 am 07:55 Cloudy 43 6 36 2 76 76 NW 12 19 29.74 1007 10 16 0.00 0.00
8:15 am 08:15 Cloudy 43 6 36 2 76 76 NW 15 24 29.77 1008 10 16 0.00 0.00
8:35 am 08:35 Cloudy 45 7 36 2 71 71 NW 15 24 29.77 1008 10 16 0.00 0.00
8:55 am 08:55 Mostly Cloudy 45 7 36 2 71 71 NW 12 19 29.80 1009 10 16 0.00 0.00
9:15 am 09:15 Mostly Cloudy 45 7 36 2 71 71 WNW 13 20 29.80 1009 10 16 0.00 0.00
9:35 am 09:35 Mostly Sunny 45 7 36 2 71 71 WNW 10 17 29.80 1009 10 16 0.00 0.00
9:55 am 09:55 Sunny 45 7 36 2 71 71 WNW 8 13 29.80 1009 10 16 0.00 0.00
10:15 am 10:15 Mostly Sunny 45 7 36 2 71 71 W 8 13 29.83 1010 10 16 0.00 0.00
10:35 am 10:35 Mostly Cloudy 46 8 36 2 66 66 WNW 9 15 29.83 1010 10 16 0.00 0.00
10:55 am 10:55 Partly Cloudy 46 8 36 2 66 66 WNW 15 24 29.83 1010 10 16 0.00 0.00
11:15 am 11:15 Sunny 46 8 36 2 66 66 NW 15 24 29.83 1010 10 16 0.00 0.00
11:35 am 11:35 Sunny 48 9 34 1 58 58 NW 16 26 29.83 1010 10 16 0.00 0.00
11:55 am 11:55 Sunny 48 9 34 1 58 58 NW 16 26 29.83 1010 10 16 0.00 0.00
12:15 pm 12:15 Sunny 52 11 34 1 50 50 N 13 20 29.80 1009 10 16 0.00 0.00
1:15 pm 13:15 Mostly Cloudy 54 12 30 -1 41 41 NNW 18 30 29.77 1008 10 16 0.00 0.00
1:35 pm 13:35 Mostly Cloudy 54 12 30 -1 41 41 NNW 17 28 29.77 1008 10 16 0.00 0.00
1:55 pm 13:55 Mostly Cloudy 54 12 28 -2 38 38 NNW 17 28 29.77 1008 10 16 0.00 0.00
2:15 pm 14:15 Mostly Cloudy 54 12 28 -2 38 38 NW 20 31 29.77 1008 10 16 0.00 0.00
2:35 pm 14:35 Mostly Cloudy 54 12 28 -2 38 38 NNW 14 22 29.74 1007 10 16 0.00 0.00
2:55 pm 14:55 Mostly Cloudy 54 12 27 -3 35 35 NW 7 11 29.74 1007 10 16 0.00 0.00
3:15 pm 15:15 Mostly Cloudy 54 12 27 -3 35 35 NW 12 19 29.74 1007 10 16 0.00 0.00
3:35 pm 15:35 Cloudy 52 11 28 -2 41 41 WNW 22 35 29.77 1008 10 16 0.00 0.00
3:55 pm 15:55 Cloudy 46 8 37 3 71 71 WNW 24 39 29.80 1009 9 14 0.00 0.00
4:15 pm 16:15 Cloudy 46 8 37 3 71 71 WNW 24 39 29.83 1010 10 16 0.00 0.00
4:35 pm 16:35 Cloudy 45 7 36 2 71 71 WNW 14 22 29.83 1010 10 16 0.00 0.00
4:55 pm 16:55 Mostly Cloudy 45 7 36 2 71 71 NW 8 13 29.83 1010 10 16 0.00 0.00
5:15 pm 17:15 Mostly Cloudy 46 8 34 1 62 62 WNW 12 19 29.83 1010 10 16 0.00 0.00
5:35 pm 17:35 Mostly Cloudy 46 8 36 2 66 66 WNW 14 22 29.83 1010 10 16 0.00 0.00
5:55 pm 17:55 Mostly Sunny 46 8 34 1 62 62 NW 14 22 29.83 1010 10 16 0.00 0.00
6:15 pm 18:15 Partly Cloudy 48 9 30 -1 50 50 NW 22 35 29.85 1011 10 16 0.00 0.00
6:35 pm 18:35 Mostly Cloudy 46 8 32 0 57 57 W 16 26 29.85 1011 10 16 0.00 0.00
6:55 pm 18:55 Cloudy 46 8 32 0 57 57 WNW 16 26 29.88 1012 10 16 0.00 0.00
7:15 pm 19:15 Cloudy 46 8 30 -1 53 53 NW 14 22 29.88 1012 10 16 0.00 0.00
7:35 pm 19:35 Partly Cloudy 46 8 30 -1 53 53 NW 13 20 29.88 1012 10 16 0.00 0.00
7:55 pm 19:55 Mostly Clear 45 7 28 -2 53 53 NW 12 19 29.91 1013 10 16 0.00 0.00
8:15 pm 20:15 Clear 43 6 28 -2 57 57 WNW 10 17 29.91 1013 10 16 0.00 0.00
8:35 pm 20:35 Clear 43 6 28 -2 57 57 WNW 7 11 29.91 1013 10 16 0.00 0.00
8:55 pm 20:55 Clear 41 5 28 -2 61 61 WNW 9 15 29.91 1013 10 16 0.00 0.00
9:15 pm 21:15 Clear 39 4 28 -2 65 65 WNW 8 13 29.91 1013 10 16 0.00 0.00
9:35 pm 21:35 Clear 39 4 28 -2 65 65 WNW 9 15 29.91 1013 10 16 0.00 0.00
9:55 pm 21:55 Clear 39 4 28 -2 65 65 WNW 9 15 29.94 1014 10 16 0.00 0.00
10:15 pm 22:15 Clear 39 4 27 -3 61 61 WNW 9 15 29.94 1014 10 16 0.00 0.00
10:35 pm 22:35 Clear 37 3 27 -3 65 65 WNW 8 13 29.97 1015 10 16 0.00 0.00
10:55 pm 22:55 Clear 36 2 27 -3 70 70 WNW 8 13 29.97 1015 10 16 0.00 0.00
11:15 pm 23:15 Clear 37 3 25 -4 60 60 W 10 17 29.97 1015 10 16 0.00 0.00
11:35 pm 23:35 Clear 37 3 25 -4 60 60 W 7 11 29.97 1015 10 16 0.00 0.00
11:55 pm 23:55 Clear 36 2 25 -4 65 65 WNW 7 11 29.97 1015 10 16 0.00 0.00

Powered by AerisWeather